BAW416 EGLL-ELLX

Flight info

Callsign BAW416
Flight time 0h 52m
Altitude 35000
Route DET L6 DVR UL9 KONAN UL607 REMBA
Aircraft A319/M-SDE3FGHIRWY/LB1

Departure

Time 2026-05-05 14:29
Airport London Heathrow Airport (EGLL)

Arrival

Time 2026-05-05 15:22
Airport Luxembourg-Findel International Airport (ELLX)
Time Latitude Longitude Altitude Speed Heading
2026-05-05 13:56 51.47289 -0.46137 89 ft 0 kts 237°
2026-05-05 14:11 51.47290 -0.46136 85 ft 2 kts 237°
2026-05-05 14:12 51.47304 -0.46102 89 ft 4 kts 237°
2026-05-05 14:12 51.47318 -0.46065 89 ft 4 kts 237°
2026-05-05 14:12 51.47333 -0.46029 89 ft 4 kts 237°
2026-05-05 14:12 51.47336 -0.46029 89 ft 4 kts 266°
2026-05-05 14:13 51.47352 -0.46050 89 ft 3 kts 326°
2026-05-05 14:13 51.47370 -0.46070 85 ft 1 kts 326°
2026-05-05 14:21 51.47389 -0.46091 87 ft 10 kts 326°
2026-05-05 14:22 51.47467 -0.46176 89 ft 14 kts 326°
2026-05-05 14:22 51.47516 -0.46295 85 ft 15 kts 272°
2026-05-05 14:22 51.47516 -0.46478 85 ft 18 kts 269°
2026-05-05 14:22 51.47513 -0.46689 85 ft 17 kts 267°
2026-05-05 14:23 51.47495 -0.46880 89 ft 19 kts 268°
2026-05-05 14:23 51.47493 -0.47104 85 ft 21 kts 269°
2026-05-05 14:23 51.47492 -0.47347 85 ft 23 kts 270°
2026-05-05 14:23 51.47490 -0.47612 85 ft 25 kts 269°
2026-05-05 14:24 51.47489 -0.47891 85 ft 25 kts 271°
2026-05-05 14:24 51.47489 -0.48161 85 ft 20 kts 269°
2026-05-05 14:24 51.47483 -0.48323 85 ft 13 kts 245°
2026-05-05 14:24 51.47393 -0.48360 85 ft 15 kts 179°
2026-05-05 14:25 51.47277 -0.48359 85 ft 18 kts 180°
2026-05-05 14:25 51.47141 -0.48356 85 ft 21 kts 179°
2026-05-05 14:25 51.46992 -0.48354 85 ft 22 kts 179°
2026-05-05 14:25 51.46855 -0.48354 85 ft 13 kts 181°
2026-05-05 14:26 51.46768 -0.48361 85 ft 12 kts 198°
2026-05-05 14:26 51.46727 -0.48462 88 ft 11 kts 223°
2026-05-05 14:26 51.46651 -0.48468 88 ft 10 kts 178°
2026-05-05 14:26 51.46585 -0.48465 89 ft 10 kts 178°
2026-05-05 14:27 51.46507 -0.48461 90 ft 9 kts 178°
2026-05-05 14:27 51.46478 -0.48396 87 ft 7 kts 88°
2026-05-05 14:27 51.46478 -0.48384 88 ft 0 kts 89°
2026-05-05 14:28 51.46479 -0.48327 88 ft 21 kts 89°
2026-05-05 14:28 51.46481 -0.47702 82 ft 88 kts 89°
2026-05-05 14:28 51.46487 -0.46391 88 ft 145 kts 89°
2026-05-05 14:29 51.46510 -0.44632 478 ft 162 kts 84°
2026-05-05 14:29 51.46535 -0.42823 1327 ft 162 kts 85°
2026-05-05 14:29 51.46215 -0.40988 1813 ft 189 kts 122°
2026-05-05 14:29 51.45352 -0.39190 2242 ft 216 kts 122°
2026-05-05 14:30 51.44500 -0.37042 2869 ft 241 kts 118°
2026-05-05 14:30 51.43680 -0.34593 3706 ft 255 kts 107°
2026-05-05 14:30 51.43261 -0.31808 4791 ft 260 kts 100°
2026-05-05 14:30 51.42865 -0.28955 5879 ft 265 kts 100°
2026-05-05 14:31 51.42455 -0.26038 6908 ft 271 kts 101°
2026-05-05 14:31 51.42048 -0.23067 7896 ft 276 kts 101°
2026-05-05 14:31 51.41632 -0.20028 8881 ft 282 kts 101°
2026-05-05 14:31 51.41207 -0.16927 9855 ft 288 kts 101°
2026-05-05 14:32 51.40766 -0.13712 10417 ft 307 kts 102°
2026-05-05 14:32 51.40295 -0.10275 10971 ft 322 kts 101°
2026-05-05 14:32 51.39809 -0.06738 11791 ft 327 kts 102°
2026-05-05 14:32 51.39314 -0.03156 12670 ft 331 kts 101°
2026-05-05 14:33 51.38809 0.00464 13570 ft 334 kts 102°
2026-05-05 14:33 51.38307 0.04060 14385 ft 336 kts 102°
2026-05-05 14:33 51.37793 0.07732 15160 ft 339 kts 101°
2026-05-05 14:33 51.37276 0.11440 15888 ft 344 kts 102°
2026-05-05 14:34 51.36753 0.15200 16613 ft 348 kts 102°
2026-05-05 14:34 51.36221 0.19013 17351 ft 353 kts 102°
2026-05-05 14:34 51.35680 0.22864 18096 ft 356 kts 102°
2026-05-05 14:34 51.35128 0.26763 18730 ft 361 kts 102°
2026-05-05 14:35 51.34567 0.30700 19349 ft 365 kts 102°
2026-05-05 14:35 51.33998 0.34688 19981 ft 369 kts 103°
2026-05-05 14:35 51.33419 0.38718 20617 ft 373 kts 103°
2026-05-05 14:35 51.32841 0.42738 21237 ft 377 kts 102°
2026-05-05 14:36 51.32251 0.46857 21988 ft 381 kts 103°
2026-05-05 14:36 51.31652 0.51011 22593 ft 385 kts 103°
2026-05-05 14:36 51.31049 0.55198 23217 ft 389 kts 103°
2026-05-05 14:36 51.30440 0.59429 23786 ft 392 kts 104°
2026-05-05 14:37 51.29767 0.63685 24310 ft 395 kts 106°
2026-05-05 14:37 51.29017 0.67923 24840 ft 397 kts 108°
2026-05-05 14:37 51.28221 0.72163 25359 ft 399 kts 108°
2026-05-05 14:37 51.27415 0.76362 25878 ft 401 kts 108°
2026-05-05 14:38 51.26594 0.80637 26403 ft 403 kts 108°
2026-05-05 14:38 51.25778 0.84936 26909 ft 405 kts 109°
2026-05-05 14:38 51.24970 0.89260 27387 ft 408 kts 108°
2026-05-05 14:38 51.24164 0.93633 27885 ft 410 kts 108°
2026-05-05 14:39 51.23361 0.98014 28354 ft 413 kts 108°
2026-05-05 14:39 51.22546 1.02435 28805 ft 417 kts 108°
2026-05-05 14:39 51.21719 1.06890 29279 ft 420 kts 109°
2026-05-05 14:39 51.20880 1.11373 29763 ft 423 kts 109°
2026-05-05 14:40 51.20045 1.15817 30203 ft 425 kts 109°
2026-05-05 14:40 51.19193 1.20350 30577 ft 429 kts 108°
2026-05-05 14:40 51.18334 1.24918 30961 ft 431 kts 109°
2026-05-05 14:40 51.17468 1.29515 31340 ft 434 kts 108°
2026-05-05 14:41 51.16621 1.34139 31709 ft 437 kts 105°
2026-05-05 14:41 51.16119 1.38925 32198 ft 438 kts 96°
2026-05-05 14:41 51.15901 1.43770 32695 ft 438 kts 96°
2026-05-05 14:41 51.15676 1.48612 33171 ft 439 kts 96°
2026-05-05 14:42 51.15440 1.53453 33659 ft 438 kts 96°
2026-05-05 14:42 51.15199 1.58293 34122 ft 438 kts 97°
2026-05-05 14:42 51.14957 1.63133 34543 ft 438 kts 96°
2026-05-05 14:42 51.14717 1.67912 34858 ft 439 kts 96°
2026-05-05 14:43 51.14236 1.77501 34948 ft 425 kts 97°
2026-05-05 14:43 51.13765 1.86816 34942 ft 420 kts 97°
2026-05-05 14:44 51.13279 1.96076 34946 ft 420 kts 97°
2026-05-05 14:44 51.12790 2.05340 34945 ft 420 kts 97°
2026-05-05 14:45 51.12303 2.14596 34942 ft 419 kts 97°
2026-05-05 14:45 51.11808 2.23852 34937 ft 419 kts 98°
2026-05-05 14:46 51.11303 2.33037 34922 ft 419 kts 98°
2026-05-05 14:46 51.10784 2.42264 34922 ft 418 kts 98°
2026-05-05 14:47 51.10265 2.51462 34922 ft 417 kts 98°
2026-05-05 14:47 51.09826 2.59088 34923 ft 416 kts 98°
2026-05-05 14:48 51.08952 2.68126 34914 ft 411 kts 109°
2026-05-05 14:48 51.07359 2.76856 34910 ft 411 kts 109°
2026-05-05 14:49 51.05775 2.85573 34904 ft 410 kts 109°
2026-05-05 14:49 51.04195 2.94271 34911 ft 409 kts 109°
2026-05-05 14:50 51.02608 3.02950 34906 ft 409 kts 109°
2026-05-05 14:50 51.01015 3.11607 34901 ft 408 kts 110°
2026-05-05 14:51 50.99416 3.20255 34899 ft 408 kts 110°
2026-05-05 14:51 50.97806 3.28900 34890 ft 408 kts 110°
2026-05-05 14:52 50.96200 3.37470 34886 ft 408 kts 110°
2026-05-05 14:52 50.94586 3.46093 34887 ft 407 kts 110°
2026-05-05 14:53 50.92968 3.54699 34894 ft 407 kts 110°
2026-05-05 14:53 50.91343 3.63280 34885 ft 406 kts 110°
2026-05-05 14:54 50.89704 3.71843 34885 ft 406 kts 111°
2026-05-05 14:54 50.88052 3.80387 34871 ft 406 kts 111°
2026-05-05 14:55 50.86393 3.88918 34877 ft 405 kts 111°
2026-05-05 14:55 50.84751 3.97383 34882 ft 405 kts 111°
2026-05-05 14:56 50.83088 4.05892 34878 ft 405 kts 111°
2026-05-05 14:56 50.81415 4.14401 34881 ft 405 kts 111°
2026-05-05 14:57 50.80570 4.18679 34722 ft 411 kts 111°
2026-05-05 14:57 50.79715 4.23002 34482 ft 410 kts 111°
2026-05-05 14:57 50.78868 4.27280 34242 ft 406 kts 111°
2026-05-05 14:57 50.78029 4.31511 33961 ft 401 kts 111°
2026-05-05 14:58 50.77198 4.35698 33483 ft 398 kts 111°
2026-05-05 14:58 50.76374 4.39844 33059 ft 393 kts 111°
2026-05-05 14:58 50.75558 4.43947 32630 ft 390 kts 111°
2026-05-05 14:58 50.74746 4.48008 32210 ft 386 kts 111°
2026-05-05 14:59 50.73938 4.52028 31795 ft 383 kts 111°
2026-05-05 14:59 50.73135 4.56015 31381 ft 380 kts 111°
2026-05-05 14:59 50.72347 4.59923 30979 ft 377 kts 111°
2026-05-05 14:59 50.71565 4.63856 30574 ft 375 kts 110°
2026-05-05 15:00 50.70801 4.67784 30164 ft 373 kts 110°
2026-05-05 15:00 50.70292 4.70424 29903 ft 372 kts 110°
2026-05-05 15:00 50.69301 4.75579 29368 ft 369 kts 110°
2026-05-05 15:00 50.68557 4.79435 28996 ft 365 kts 110°
2026-05-05 15:01 50.67817 4.83248 28629 ft 362 kts 110°
2026-05-05 15:01 50.67073 4.87019 28263 ft 358 kts 112°
2026-05-05 15:01 50.66060 4.90559 27906 ft 350 kts 123°
2026-05-05 15:01 50.64681 4.93675 27556 ft 343 kts 133°
2026-05-05 15:02 50.63029 4.96361 27206 ft 338 kts 138°
2026-05-05 15:02 50.61359 4.98942 26849 ft 335 kts 138°
2026-05-05 15:02 50.59729 5.01475 26507 ft 332 kts 137°
2026-05-05 15:02 50.58095 5.04015 26143 ft 329 kts 137°
2026-05-05 15:03 50.56468 5.06539 25780 ft 328 kts 137°
2026-05-05 15:03 50.54850 5.09046 25425 ft 326 kts 137°
2026-05-05 15:03 50.53236 5.11543 25043 ft 325 kts 137°
2026-05-05 15:03 50.51628 5.14024 24679 ft 323 kts 137°
2026-05-05 15:04 50.50025 5.16490 24308 ft 322 kts 138°
2026-05-05 15:04 50.48427 5.18942 23922 ft 321 kts 138°
2026-05-05 15:04 50.46831 5.21393 23540 ft 320 kts 138°
2026-05-05 15:04 50.45239 5.23836 23118 ft 319 kts 138°
2026-05-05 15:05 50.42082 5.28672 22355 ft 315 kts 138°
2026-05-05 15:05 50.40522 5.31061 21985 ft 312 kts 138°
2026-05-05 15:05 50.38974 5.33432 21613 ft 311 kts 138°
2026-05-05 15:06 50.37430 5.35792 21241 ft 309 kts 138°
2026-05-05 15:06 50.35895 5.38132 20872 ft 307 kts 138°
2026-05-05 15:06 50.34368 5.40464 20505 ft 306 kts 138°
2026-05-05 15:06 50.32863 5.42758 20143 ft 305 kts 138°
2026-05-05 15:07 50.31346 5.45068 19777 ft 304 kts 138°
2026-05-05 15:07 50.29836 5.47367 19413 ft 303 kts 139°
2026-05-05 15:07 50.28329 5.49662 19052 ft 302 kts 138°
2026-05-05 15:07 50.26825 5.51949 18683 ft 301 kts 138°
2026-05-05 15:08 50.25325 5.54228 18305 ft 300 kts 138°
2026-05-05 15:08 50.23830 5.56498 17916 ft 299 kts 138°
2026-05-05 15:08 50.22340 5.58755 17543 ft 297 kts 138°
2026-05-05 15:08 50.20861 5.60994 17186 ft 295 kts 138°
2026-05-05 15:09 50.19388 5.63221 16832 ft 294 kts 138°
2026-05-05 15:09 50.17918 5.65438 16481 ft 295 kts 138°
2026-05-05 15:09 50.16427 5.67684 16110 ft 299 kts 138°
2026-05-05 15:09 50.14920 5.69949 15744 ft 303 kts 138°
2026-05-05 15:10 50.13399 5.72229 15382 ft 304 kts 138°
2026-05-05 15:10 50.11876 5.74510 15002 ft 303 kts 137°
2026-05-05 15:10 50.10355 5.76793 14648 ft 304 kts 137°
2026-05-05 15:10 50.08834 5.79082 14281 ft 304 kts 137°
2026-05-05 15:11 50.07312 5.81373 13906 ft 303 kts 137°
2026-05-05 15:11 50.05801 5.83643 13528 ft 300 kts 137°
2026-05-05 15:11 50.04306 5.85887 13144 ft 297 kts 137°
2026-05-05 15:11 50.02827 5.88105 12775 ft 295 kts 137°
2026-05-05 15:12 50.01356 5.90307 12413 ft 292 kts 137°
2026-05-05 15:12 49.99900 5.92487 12053 ft 289 kts 137°
2026-05-05 15:12 49.98458 5.94643 11692 ft 287 kts 137°
2026-05-05 15:12 49.97025 5.96780 11342 ft 284 kts 137°
2026-05-05 15:13 49.95600 5.98903 10988 ft 283 kts 137°
2026-05-05 15:13 49.94183 6.01011 10638 ft 281 kts 137°
2026-05-05 15:13 49.92778 6.03098 10290 ft 279 kts 137°
2026-05-05 15:13 49.91378 6.05177 9942 ft 278 kts 137°
2026-05-05 15:14 49.89983 6.07246 9578 ft 277 kts 137°
2026-05-05 15:14 49.88595 6.09307 9215 ft 275 kts 137°
2026-05-05 15:14 49.87222 6.11350 8869 ft 273 kts 137°
2026-05-05 15:14 49.86030 6.13625 8525 ft 272 kts 123°
2026-05-05 15:15 49.85214 6.16224 8251 ft 269 kts 115°
2026-05-05 15:15 49.84481 6.18854 8002 ft 265 kts 115°
2026-05-05 15:15 49.83740 6.21480 7682 ft 267 kts 115°
2026-05-05 15:15 49.82988 6.24128 7348 ft 271 kts 115°
2026-05-05 15:16 49.82218 6.26824 7006 ft 275 kts 115°
2026-05-05 15:16 49.81438 6.29546 6656 ft 277 kts 115°
2026-05-05 15:16 49.80658 6.32271 6413 ft 274 kts 115°
2026-05-05 15:16 49.79899 6.34931 6274 ft 266 kts 116°
2026-05-05 15:17 49.79109 6.37465 6150 ft 256 kts 126°
2026-05-05 15:17 49.77942 6.39469 6022 ft 247 kts 144°
2026-05-05 15:17 49.76501 6.40848 5718 ft 246 kts 153°
2026-05-05 15:17 49.74962 6.42189 5033 ft 259 kts 153°
2026-05-05 15:18 49.73375 6.43535 4611 ft 256 kts 157°
2026-05-05 15:18 49.71657 6.43864 4196 ft 248 kts 194°
2026-05-05 15:18 49.70246 6.42512 3955 ft 239 kts 232°
2026-05-05 15:18 49.69570 6.40211 3685 ft 233 kts 251°
2026-05-05 15:19 49.68906 6.37993 3383 ft 222 kts 240°
2026-05-05 15:19 49.68145 6.35973 3099 ft 213 kts 239°
2026-05-05 15:19 49.67424 6.34049 2816 ft 206 kts 240°
2026-05-05 15:19 49.66732 6.32191 2555 ft 193 kts 240°
2026-05-05 15:20 49.66098 6.30474 2301 ft 175 kts 239°
2026-05-05 15:20 49.65522 6.28917 2085 ft 157 kts 239°
2026-05-05 15:20 49.65012 6.27543 1858 ft 139 kts 239°
2026-05-05 15:20 49.64551 6.26299 1673 ft 128 kts 239°
2026-05-05 15:21 49.64117 6.25129 1476 ft 124 kts 239°
2026-05-05 15:21 49.63690 6.23978 1327 ft 123 kts 239°
2026-05-05 15:21 49.63272 6.22848 1217 ft 115 kts 240°
2026-05-05 15:21 49.62958 6.21987 1212 ft 55 kts 240°
2026-05-05 15:22 49.62826 6.21635 1211 ft 37 kts 239°
2026-05-05 15:22 49.62701 6.21298 1216 ft 29 kts 241°
2026-05-05 15:22 49.62652 6.21039 1216 ft 25 kts 264°
2026-05-05 15:22 49.62648 6.20822 1205 ft 14 kts 278°
2026-05-05 15:23 49.62738 6.20739 1198 ft 17 kts 11°
2026-05-05 15:23 49.62828 6.20841 1199 ft 18 kts 63°
2026-05-05 15:23 49.62883 6.21019 1197 ft 19 kts 65°
2026-05-05 15:23 49.62942 6.21212 1197 ft 21 kts 65°
2026-05-05 15:24 49.63007 6.21418 1197 ft 22 kts 63°
2026-05-05 15:24 49.63073 6.21632 1197 ft 21 kts 65°
2026-05-05 15:24 49.63138 6.21839 1197 ft 22 kts 65°
2026-05-05 15:24 49.63195 6.22027 1197 ft 13 kts 64°
2026-05-05 15:25 49.63256 6.22117 1197 ft 13 kts 355°
2026-05-05 15:25 49.63330 6.22030 1196 ft 15 kts 314°
2026-05-05 15:25 49.63354 6.21905 1196 ft 8 kts 260°
2026-05-05 15:25 49.63343 6.21837 1196 ft 4 kts 271°
2026-05-05 15:26 49.63367 6.21806 1195 ft 5 kts 332°
2026-05-05 15:26 49.63392 6.21785 1195 ft 0 kts 331°